This is the latest recevied weather packets stored in our database for station/object DL9GRB-13. If no packets are shown the sender has not sent any weather packets the latest 10 day(s).
| Time | Temp. | Humidity | Pressure | Rain* | Wind** | Luminosity | Snow |
|---|---|---|---|---|---|---|---|
| 1777230845 | 6.67° C | 58% | 1023.1 hPa | 0 mm | - | 0 W/m² | - |
| 1777230665 | 6.67° C | 55% | 1023 hPa | 0 mm | - | 0 W/m² | - |
| 1777230485 | 7.22° C | 55% | 1023.3 hPa | 0 mm | - | 0 W/m² | - |
| 1777230305 | 7.22° C | 55% | 1023.2 hPa | 0 mm | - | 0 W/m² | - |
| 1777230125 | 7.22° C | 55% | 1023.3 hPa | 0 mm | - | 0 W/m² | - |
| 1777229945 | 7.78° C | 50% | 1023.2 hPa | 0 mm | - | 0 W/m² | - |
| 1777229765 | 7.78° C | 50% | 1023.2 hPa | 0 mm | - | 0 W/m² | - |
| 1777229585 | 7.78° C | 49% | 1023 hPa | 0 mm | - | 0 W/m² | - |
| 1777229405 | 8.33° C | 48% | 1023.2 hPa | 0 mm | - | 1 W/m² | - |
| 1777229225 | 8.33° C | 48% | 1023.2 hPa | 0 mm | - | 1 W/m² | - |
| 1777229045 | 8.33° C | 48% | 1023.1 hPa | 0 mm | - | 1 W/m² | - |
| 1777228865 | 8.89° C | 47% | 1023.2 hPa | 0 mm | - | 2 W/m² | - |
| 1777228685 | 8.89° C | 45% | 1022.9 hPa | 0 mm | - | 2 W/m² | - |
| 1777228505 | 9.44° C | 45% | 1023 hPa | 0 mm | - | 3 W/m² | - |
| 1777228325 | 9.44° C | 45% | 1023.1 hPa | 0 mm | - | 4 W/m² | - |
| 1777228145 | 9.44° C | 44% | 1023.1 hPa | 0 mm | - | 5 W/m² | - |
| 1777227965 | 9.44° C | 41% | 1023.2 hPa | 0 mm | - | 6 W/m² | - |
| 1777227785 | 10° C | 41% | 1023.1 hPa | 0 mm | - | 7 W/m² | - |
| 1777227605 | 10° C | 42% | 1022.9 hPa | 0 mm | - | 9 W/m² | - |
| 1777227425 | 10.56° C | 42% | 1023.1 hPa | 0 mm | - | 11 W/m² | - |
| 1777227245 | 10.56° C | 40% | 1023 hPa | 0 mm | - | 13 W/m² | - |
| 1777227065 | 10.56° C | 38% | 1023 hPa | 0 mm | - | 16 W/m² | - |
| 1777226885 | 10.56° C | 38% | 1023.1 hPa | 0 mm | - | 19 W/m² | - |
| 1777226705 | 10.56° C | 38% | 1023 hPa | 0 mm | - | 20 W/m² | - |
| 1777226525 | 10.56° C | 37% | 1023.2 hPa | 0 mm | - | 22 W/m² | - |
* Rain latest hour (hover to see other rain measurements)
** Current wind speed in m/s (hover to see current wind gust speed)